Location: White Mills Observatory
(37.5374°N, 86.0303°W)
Time: 18:54:59
(UTC-04:00)

Amateur Radio Satellites - All Passes

Search period start: 31 October 2014 18:24
Search period end: 01 November 2014 18:24
Location: White Mills Observatory, 37.5374°N, 86.0303°W

Satellite Date Start Highest point End Downlink Frequencies (MHz)
Time Altitude Azimuth
JAS-2 31 Oct 18:36:16 18:42:26 83° 257° (WSW) 18:49:32 435.800 - 435.900 CW/SSB, 435.910 FM
KITSAT 1 31 Oct 18:37:19 18:40:53 13° 30° (NNE) 18:44:26 435.175 FM
Hamsat 31 Oct 18:40:07 18:44:17 71° 76° (ENE) 18:48:27 145.90 MHz
ISS 31 Oct 18:45:29 18:48:22 27° 228° (SW) 18:51:14 145.800 FM
SO-67 31 Oct 19:24:13 19:26:54 22° 71° (ENE) 19:29:36 435.3500 MHz FM
OPAL 31 Oct 19:44:05 19:48:48 47° 290° (WNW) 19:53:31 ?
RS-15 31 Oct 19:45:33 19:48:22 11° 96° (E) 19:51:09 29.354 - 29.394 USB, Beacon 29.352 USB
STRAND 1 31 Oct 20:01:59 20:06:41 35° 98° (E) 20:11:21 ?
HO-68 31 Oct 20:06:56 20:10:46 15° 55° (NE) 20:14:36 435.675 MHz FM
JAS-2 31 Oct 20:27:21 20:28:44 11° 276° (W) 20:30:09 435.800 - 435.900 CW/SSB, 435.910 FM
KITSAT 1 31 Oct 20:30:41 20:38:30 50° 54° (NE) 20:46:16 435.175 FM
SO-50 31 Oct 20:44:23 20:49:06 49° 55° (NE) 20:53:50 436.795 FM
Oscar 10/S400 31 Oct 20:53:13 21:27:13 59° 198° (SSW) 07:11:21 145.825 - 145.975 CW/USB, Beacon 145.810 USB
SO-67 31 Oct 20:57:29 20:59:48 17° 266° (W) 21:02:08 435.3500 MHz FM
AO-40 31 Oct 20:58:02 22:20:38 15° 106° (ESE) 23:13:15 Beacon 2401.320
Oscar 11 31 Oct 21:25:37 21:26:52 11° 64° (ENE) 21:28:06 145.825 FM, Beacon 2401.500 USB
UOSAT-12 31 Oct 21:27:57 21:30:46 16° 44° (NE) 21:33:34 437.025 FM, 437.400 FM
STRAND 1 31 Oct 21:41:30 21:45:40 25° 293° (WNW) 21:49:49 ?
RS-15 31 Oct 21:47:38 21:58:31 68° 114° (ESE) 22:09:17 29.354 - 29.394 USB, Beacon 29.352 USB
MaSat-1 31 Oct 21:49:23 21:50:52 12° 105° (ESE) 21:52:18 437.345 MHz
HO-68 31 Oct 21:50:13 21:57:23 84° 73° (ENE) 22:04:37 435.675 MHz FM
UKube-1 31 Oct 22:23:30 22:27:45 56° 74° (ENE) 22:32:02 145.840 MHz, 145.915 MHz
SO-50 31 Oct 22:25:57 22:29:17 19° 251° (WSW) 22:32:37 436.795 FM
KITSAT 1 31 Oct 22:26:31 22:33:36 35° 253° (WSW) 22:40:40 435.175 FM
ZACube-1 31 Oct 22:33:37 22:37:29 28° 71° (ENE) 22:41:18 437.345 MHz
Oscar 11 31 Oct 22:58:13 23:02:29 62° 259° (W) 23:06:46 145.825 FM, Beacon 2401.500 USB
UOSAT-12 31 Oct 23:06:44 23:11:25 70° 242° (WSW) 23:16:00 437.025 FM, 437.400 FM
FUNcube-1 31 Oct 23:15:36 23:20:09 84° 77° (ENE) 23:24:37 145.950 - 145.970 MHz USB
MaSat-1 31 Oct 23:22:14 23:25:59 42° 296° (WNW) 23:29:23 437.345 MHz
HO-68 31 Oct 23:41:56 23:45:50 15° 269° (W) 23:49:45 435.675 MHz FM
RS-15 01 Nov 00:01:50 00:11:36 36° 317° (NW) 00:21:27 29.354 - 29.394 USB, Beacon 29.352 USB
UKube-1 01 Nov 00:02:56 00:04:15 11° 268° (W) 00:05:35 145.840 MHz, 145.915 MHz
ZACube-1 01 Nov 00:10:08 00:13:49 24° 264° (W) 00:17:27 437.345 MHz
Sapphire 01 Nov 01:53:31 01:56:33 15° 104° (ESE) 01:59:36 437.095 MHz 1200 baud AX-25 AFSK
PCSat 01 Nov 02:13:29 02:17:55 27° 107° (ESE) 02:22:23 145.825 MHz
JAS-1B 01 Nov 02:16:47 02:23:05 28° 97° (E) 02:30:14 435.800 - 435.900 CW/SSB
RS-15 01 Nov 02:22:54 02:28:44 15° 351° (N) 02:34:38 29.354 - 29.394 USB, Beacon 29.352 USB
Oscar 19 01 Nov 02:34:25 02:38:48 28° 96° (E) 02:43:10 437.125 CW, 437.150 USB
AO-27 01 Nov 03:12:12 03:16:33 26° 96° (E) 03:20:51 436.795 MHz FM
Oscar 16 01 Nov 03:21:02 03:26:11 85° 103° (ESE) 03:31:18 437.025 USB, Beacon 2401.1428
Gurwin Techsat 1B 01 Nov 03:31:05 03:35:03 21° 94° (E) 03:39:00 435.225 FM
Sapphire 01 Nov 03:34:01 03:39:22 64° 299° (WNW) 03:44:46 437.095 MHz 1200 baud AX-25 AFSK
TMSAT-1 01 Nov 03:37:28 03:40:57 18° 93° (E) 03:44:24 436.925 FM
AO-Echo 01 Nov 03:51:24 03:56:46 88° 103° (ESE) 04:02:01 ?
Uribyol 2 01 Nov 03:55:01 04:00:13 74° 103° (ESE) 04:05:22 436.500 FM
PCSat 01 Nov 03:56:05 04:01:07 39° 304° (NW) 04:06:11 145.825 MHz
ITAMSAT 1 01 Nov 04:03:07 04:08:22 82° 103° (ESE) 04:13:33 435.822 SSB
JAS-1B 01 Nov 04:06:40 04:13:44 57° 288° (WNW) 04:22:08 435.800 - 435.900 CW/SSB
Oscar 19 01 Nov 04:13:38 04:18:05 31° 291° (WNW) 04:22:31 437.125 CW, 437.150 USB
RS-15 01 Nov 04:39:06 04:47:16 22° 29° (NNE) 04:55:35 29.354 - 29.394 USB, Beacon 29.352 USB
PANSAT 01 Nov 04:45:45 04:48:06 16° 167° (SSE) 04:50:27 not established
AO-27 01 Nov 04:51:22 04:56:03 34° 291° (WNW) 05:00:42 436.795 MHz FM
Oscar 16 01 Nov 05:03:26 05:04:46 11° 299° (WNW) 05:06:06 437.025 USB, Beacon 2401.1428
Gurwin Techsat 1B 01 Nov 05:10:09 05:15:10 43° 289° (WNW) 05:20:09 435.225 FM
TMSAT-1 01 Nov 05:16:00 05:21:08 52° 288° (WNW) 05:26:14 436.925 FM
Saudisat 1A 01 Nov 05:18:42 05:20:44 13° 108° (ESE) 05:22:46 436.775 MHz
OPAL 01 Nov 05:19:07 05:23:23 28° 66° (ENE) 05:27:37 ?
Sapphire 01 Nov 05:23:08 05:23:53 10° 319° (NW) 05:24:38 437.095 MHz 1200 baud AX-25 AFSK
AO-Echo 01 Nov 05:33:01 05:34:42 12° 300° (WNW) 05:36:22 ?
Uribyol 2 01 Nov 05:36:41 05:39:01 13° 299° (WNW) 05:41:22 436.500 FM
Uosat F 01 Nov 05:43:39 05:48:22 39° 99° (E) 05:53:02 435.120 FM
ITAMSAT 1 01 Nov 05:45:17 05:47:06 12° 300° (WNW) 05:48:55 435.822 SSB
JAS-2 01 Nov 05:49:02 05:54:27 20° 89° (E) 05:59:40 435.800 - 435.900 CW/SSB, 435.910 FM
AO-7 01 Nov 05:52:14 06:00:30 62° 104° (ESE) 06:08:44 29.400 - 29.500 MHz
PANSAT 01 Nov 06:24:44 06:27:40 21° 180° (S) 06:30:37 not established
Hamsat 01 Nov 06:29:01 06:31:22 14° 93° (E) 06:33:42 145.90 MHz
RS-15 01 Nov 06:51:03 07:02:14 68° 56° (NE) 07:13:52 29.354 - 29.394 USB, Beacon 29.352 USB
Saudisat 1A 01 Nov 06:55:30 06:59:47 55° 303° (WNW) 07:04:08 436.775 MHz
OPAL 01 Nov 06:57:34 07:02:07 32° 261° (W) 07:06:39 ?
STRAND 1 01 Nov 07:15:57 07:20:45 42° 71° (ENE) 07:25:35 ?
Uosat F 01 Nov 07:23:01 07:26:52 23° 294° (WNW) 07:30:43 435.120 FM
JAS-2 01 Nov 07:32:14 07:40:07 78° 286° (WNW) 07:47:39 435.800 - 435.900 CW/SSB, 435.910 FM
AO-7 01 Nov 07:45:55 07:52:42 29° 301° (WNW) 07:59:30 29.400 - 29.500 MHz
Hamsat 01 Nov 08:03:29 08:07:28 41° 287° (WNW) 08:11:27 145.90 MHz
PANSAT 01 Nov 08:04:57 08:07:14 15° 193° (SSW) 08:09:31 not established
SO-67 01 Nov 08:21:24 08:24:32 32° 97° (E) 08:27:39 435.3500 MHz FM
STRAND 1 01 Nov 08:56:17 09:00:04 21° 266° (W) 09:03:54 ?
RS-15 01 Nov 09:04:22 09:13:48 33° 255° (WSW) 09:23:37 29.354 - 29.394 USB, Beacon 29.352 USB
MaSat-1 01 Nov 09:08:40 09:10:39 22° 251° (WSW) 09:12:34 437.345 MHz
JAS-2 01 Nov 09:19:35 09:23:49 16° 304° (NW) 09:28:02 435.800 - 435.900 CW/SSB, 435.910 FM
HO-68 01 Nov 09:22:06 09:26:29 17° 92° (E) 09:30:50 435.675 MHz FM
ISS 01 Nov 09:49:43 09:52:27 24° 132° (SE) 09:55:12 145.800 FM
SO-67 01 Nov 09:55:47 09:57:10 12° 292° (WNW) 09:58:33 435.3500 MHz FM
UKube-1 01 Nov 10:16:10 10:17:21 11° 91° (E) 10:18:31 145.840 MHz, 145.915 MHz
Sapphire 01 Nov 10:43:33 10:44:51 11° 41° (NE) 10:46:10 437.095 MHz 1200 baud AX-25 AFSK
Oscar 11 01 Nov 10:48:08 10:51:48 27° 96° (E) 10:55:26 145.825 FM, Beacon 2401.500 USB
KITSAT 1 01 Nov 10:56:46 11:04:15 44° 109° (ESE) 11:11:45 435.175 FM
SO-50 01 Nov 10:58:21 11:01:53 23° 111° (ESE) 11:05:29 436.795 FM
PCSat 01 Nov 11:03:27 11:06:54 17° 47° (NE) 11:10:21 145.825 MHz
HO-68 01 Nov 11:07:38 11:14:50 79° 288° (WNW) 11:21:59 435.675 MHz FM
FUNcube-1 01 Nov 11:07:54 11:10:40 17° 93° (E) 11:13:25 145.950 - 145.970 MHz USB
ISS 01 Nov 11:26:01 11:29:02 32° 327° (NNW) 11:32:04 145.800 FM
UKube-1 01 Nov 11:49:34 11:53:51 57° 286° (WNW) 11:58:07 145.840 MHz, 145.915 MHz
ZACube-1 01 Nov 12:00:23 12:04:34 76° 102° (ESE) 12:08:42 437.345 MHz
Sapphire 01 Nov 12:23:54 12:29:19 67° 61° (ENE) 12:34:42 437.095 MHz 1200 baud AX-25 AFSK
Oscar 11 01 Nov 12:24:24 12:27:50 24° 291° (WNW) 12:31:16 145.825 FM, Beacon 2401.500 USB
SO-50 01 Nov 12:38:06 12:42:13 34° 308° (NW) 12:46:27 436.795 FM
FUNcube-1 01 Nov 12:43:23 12:47:07 33° 289° (WNW) 12:50:49 145.950 - 145.970 MHz USB
PCSat 01 Nov 12:45:28 12:50:54 74° 245° (WSW) 12:56:16 145.825 MHz
KITSAT 1 01 Nov 12:52:07 12:59:38 42° 308° (NW) 13:07:12 435.175 FM
HO-68 01 Nov 12:57:57 13:01:23 14° 306° (NW) 13:04:49 435.675 MHz FM
Oscar 16 01 Nov 13:00:48 13:02:32 12° 61° (ENE) 13:04:16 437.025 USB, Beacon 2401.1428
JAS-1B 01 Nov 13:04:39 13:07:19 14° 59° (ENE) 13:09:59 435.800 - 435.900 CW/SSB
UOSAT-12 01 Nov 13:15:44 13:20:15 56° 117° (ESE) 13:24:51 437.025 FM, 437.400 FM
AO-Echo 01 Nov 13:28:34 13:29:16 10° 60° (ENE) 13:29:57 ?
Uribyol 2 01 Nov 13:36:16 13:37:25 11° 60° (ENE) 13:38:34 436.500 FM
ITAMSAT 1 01 Nov 13:43:37 13:45:35 12° 61° (ENE) 13:47:33 435.822 SSB
Oscar 19 01 Nov 13:49:25 13:54:01 34° 69° (ENE) 13:58:36 437.125 CW, 437.150 USB
Sapphire 01 Nov 14:09:15 14:12:06 15° 257° (WSW) 14:14:57 437.095 MHz 1200 baud AX-25 AFSK
AO-27 01 Nov 14:28:23 14:33:02 34° 69° (ENE) 14:37:41 436.795 MHz FM
Oscar 16 01 Nov 14:36:00 14:41:09 81° 257° (WSW) 14:46:19 437.025 USB, Beacon 2401.1428
Gurwin Techsat 1B 01 Nov 14:50:13 14:54:41 28° 68° (ENE) 14:59:09 435.225 FM
JAS-1B 01 Nov 14:51:32 14:57:18 71° 257° (WSW) 15:03:01 435.800 - 435.900 CW/SSB
KITSAT 1 01 Nov 14:55:19 14:57:37 11° 334° (NNW) 14:59:56 435.175 FM
TMSAT-1 01 Nov 14:56:15 15:00:23 24° 66° (ENE) 15:04:32 436.925 FM
UOSAT-12 01 Nov 14:57:31 15:00:45 18° 314° (NW) 15:04:00 437.025 FM, 437.400 FM
AO-7 01 Nov 15:01:47 15:05:43 14° 50° (NE) 15:09:40 29.400 - 29.500 MHz
AO-Echo 01 Nov 15:02:10 15:07:09 90° 256° (WSW) 15:12:20 ?
Uribyol 2 01 Nov 15:10:51 15:16:04 90° 75° (ENE) 15:21:20 436.500 FM
ITAMSAT 1 01 Nov 15:19:07 15:24:20 81° 257° (WSW) 15:29:36 435.822 SSB
Saudisat 1A 01 Nov 15:23:49 15:28:13 64° 58° (ENE) 15:32:35 436.775 MHz
Oscar 19 01 Nov 15:29:09 15:33:21 25° 265° (W) 15:37:34 437.125 CW, 437.150 USB
AO-27 01 Nov 16:08:09 16:12:31 27° 264° (W) 16:16:55 436.795 MHz FM
ISS 01 Nov 16:19:51 16:22:24 20° 27° (NNE) 16:24:56 145.800 FM
Gurwin Techsat 1B 01 Nov 16:29:45 16:34:30 33° 263° (W) 16:39:17 435.225 FM
TMSAT-1 01 Nov 16:35:05 16:40:02 40° 262° (W) 16:45:01 436.925 FM
AO-7 01 Nov 16:48:50 16:57:01 70° 69° (ENE) 17:05:14 29.400 - 29.500 MHz
Uosat F 01 Nov 16:54:57 16:59:42 44° 71° (ENE) 17:04:29 435.120 FM
Saudisat 1A 01 Nov 17:05:48 17:07:12 11° 253° (WSW) 17:08:36 436.775 MHz
JAS-2 01 Nov 17:41:58 17:47:47 40° 67° (ENE) 17:54:17 435.800 - 435.900 CW/SSB, 435.910 FM
ISS 01 Nov 17:56:02 17:59:17 52° 224° (SW) 18:02:32 145.800 FM
